Location: Bodest
(46.3000°N, 22.5667°E)
Time: 21:33:30
(UTC+00:00)

Cosmos 489 Rocket - Pass Details

Date: 16 October 2021
Orbit: 953 x 983 km, 74.0° (Epoch: 29 November)

Event Time Altitude Azimuth Distance (km) Brightness Sun altitude
Rises 17:14:56 0° 339° (NNW) 3,642 7.9 -16.9°
Reaches altitude 10° 17:17:29 10° 341° (NNW) 2,691 7.1 -17.3°
Maximum altitude 17:23:42 73° 66° (ENE) 999 4.4 -18.4°
Enters shadow 17:29:08 14° 151° (SSE) 2,404 6.2 -19.3°
